Home   Weather   Vancouver   Past weeks
Flag for Canada

Past Weather in Vancouver, British Columbia, Canada — Yesterday and Last 2 Weeks

Now
68 °F

Mostly cloudy.


Feels Like: 68 °F
Forecast: 66 / 59 °F
Wind: 9 mph from Southeast

Location: Vancouver International Airport

Current Time: Jul 16, 2019 at 9:53:06 pm

Latest Report: Jul 16, 2019 at 9:00 pm


Visibility: 30 mi

Pressure: 29.90 "Hg

Humidity: 60%

Dew Point: 54 °F

Location of VancouverLocation

Past Weather in Vancouver — Graph

°F

Vancouver Temperature Yesterday

Maximum temperature yesterday: 75 °F (at 3:00 pm)
Minimum temperature yesterday: 59 °F (at 5:00 am)
Average temperature yesterday: 67 °F

High & Low Weather Summary for the Past Weeks

 TemperatureHumidityPressure
High75 °F (Jul 13, 4:00 pm)100% (Jul 8, 4:00 am)30.14 "Hg (Jul 8, 4:00 am)
Low52 °F (Jul 8, 2:00 am)47% (Jul 13, 6:00 pm)29.91 "Hg (Jul 16, 8:00 pm)
Average64 °F76%30.03 "Hg
* Reported Jul 1 8:00 pm — Jul 16 8:00 pm, Vancouver. Weather by CustomWeather, © 2019

Note: Actual official high and low records may vary slightly from our data, if they occured in-between our weather recording intervals... More about our weather records

Advertising

Vancouver Weather History for the Previous 24 Hours

Scroll right to see more
 ConditionsComfort  
Time TempWeatherWind HumidityBarometerVisibility
8:00 pm
Tue, Jul 16
72 °FMore clouds than sun.10 mph53%29.91 "Hg30 mi
7:00 pm73 °FBroken clouds.6 mph57%29.92 "Hg30 mi
6:00 pm73 °FBroken clouds.6 mph53%29.93 "Hg30 mi
5:00 pm73 °FMore clouds than sun.8 mph65%29.93 "Hg30 mi
4:00 pm73 °FBroken clouds.8 mph61%29.96 "Hg30 mi
3:00 pm73 °FBroken clouds.12 mph65%29.97 "Hg30 mi
2:00 pm72 °FPartly sunny.12 mph73%29.98 "Hg30 mi
1:00 pm75 °FPassing clouds.5 mph57%29.99 "Hg30 mi
12:00 pm73 °FPassing clouds.8 mph61%30.00 "Hg30 mi
11:00 am72 °FPartly sunny.8 mph61%30.01 "Hg30 mi
10:00 am68 °FScattered clouds.3 mph69%30.01 "Hg30 mi
9:00 am66 °FPassing clouds.8 mph68%30.02 "Hg30 mi
8:00 am64 °FPartly sunny.8 mph73%30.02 "Hg30 mi
7:00 am61 °FScattered clouds.7 mph83%30.02 "Hg30 mi
6:00 am59 °FPassing clouds.6 mph82%30.01 "Hg30 mi
5:00 am59 °FPassing clouds.8 mph82%30.01 "Hg30 mi
4:00 am59 °FPassing clouds.9 mph88%30.01 "Hg20 mi
3:00 am61 °FPassing clouds.8 mph83%30.01 "Hg20 mi
2:00 am61 °FClear.8 mph83%30.01 "Hg20 mi
1:00 am63 °FClear.8 mph77%30.02 "Hg20 mi
12:00 am63 °FPassing clouds.7 mph77%30.02 "Hg20 mi
11:00 pm
Mon, Jul 15
63 °FPassing clouds.10 mph77%30.02 "Hg20 mi
10:00 pm64 °FPassing clouds.10 mph73%30.01 "Hg30 mi
9:00 pm66 °FPassing clouds.9 mph68%30.01 "Hg30 mi
Weather by CustomWeather, © 2019

See weather overview